{"data":{"norad_id":60049,"epoch":"2026-09-21T14:18:54.215712Z","epoch_age_seconds":82806,"freshness":"FRESH","line1":"1 60049U 24112M   26264.59646083 -.00005752  00000+0 -42607-4 0  9993","line2":"2 60049  53.1589  20.2798 0000793 113.9384 246.1717 15.69735156131751","mean_motion":15.69735156,"eccentricity":7.93e-5,"inclination_deg":53.1589,"raan_deg":20.2798,"arg_perigee_deg":113.9384,"mean_anomaly_deg":246.1717,"bstar":-4.2607e-5,"rev_number":13175,"period_min":91.735220078106,"perigee_km":359.12045765142,"apogee_km":360.18907142528,"semimajor_km":6737.7917645383,"source":"CELESTRAK","updated_at":"2026-09-22T09:00:49.144054Z"}}